N70AL KORL-KLEE

Flight info

Callsign N70AL
Flight time 0h 17m
Altitude VFR/025
Route
Aircraft G21/L-DOV/C

Departure

Time 2026-05-05 00:54
Airport Orlando Executive Airport (KORL)

Arrival

Time 2026-05-05 01:11
Airport Leesburg International Airport (KLEE)
Time Latitude Longitude Altitude Speed Heading
2026-05-05 00:45 28.54896 -81.32718 112 ft 17 kts 221°
2026-05-05 00:46 28.54849 -81.32834 113 ft 16 kts 246°
2026-05-05 00:46 28.54796 -81.32975 111 ft 21 kts 246°
2026-05-05 00:46 28.54738 -81.33123 113 ft 20 kts 246°
2026-05-05 00:46 28.54677 -81.33286 112 ft 22 kts 247°
2026-05-05 00:47 28.54616 -81.33446 111 ft 21 kts 246°
2026-05-05 00:47 28.54558 -81.33596 110 ft 20 kts 251°
2026-05-05 00:47 28.54526 -81.33694 108 ft 10 kts 238°
2026-05-05 00:47 28.54494 -81.33766 108 ft 10 kts 248°
2026-05-05 00:48 28.54442 -81.33854 109 ft 12 kts 219°
2026-05-05 00:48 28.54391 -81.33879 108 ft 0 kts 162°
2026-05-05 00:53 28.54320 -81.33824 106 ft 16 kts 76°
2026-05-05 00:53 28.54461 -81.33497 112 ft 64 kts 69°
2026-05-05 00:53 28.54640 -81.32978 250 ft 79 kts 73°
2026-05-05 00:53 28.54878 -81.32370 510 ft 89 kts 70°
2026-05-05 00:54 28.55145 -81.31713 766 ft 100 kts 69°
2026-05-05 00:54 28.55432 -81.30944 936 ft 113 kts 70°
2026-05-05 00:54 28.55704 -81.30128 1293 ft 104 kts 72°
2026-05-05 00:54 28.56011 -81.29367 1382 ft 123 kts 66°
2026-05-05 00:55 28.56427 -81.28427 1323 ft 136 kts 68°
2026-05-05 00:55 28.56791 -81.27404 1252 ft 142 kts 72°
2026-05-05 00:55 28.57116 -81.26324 1140 ft 147 kts 76°
2026-05-05 00:55 28.57438 -81.25267 1256 ft 137 kts 70°
2026-05-05 00:56 28.57827 -81.24272 1196 ft 142 kts 69°
2026-05-05 00:56 28.58216 -81.23222 1103 ft 144 kts 70°
2026-05-05 00:56 28.58559 -81.22157 1115 ft 141 kts 73°
2026-05-05 00:56 28.58872 -81.21103 1089 ft 141 kts 74°
2026-05-05 00:57 28.59206 -81.20046 1078 ft 139 kts 59°
2026-05-05 00:57 28.60031 -81.19463 1044 ft 154 kts 15°
2026-05-05 00:57 28.61046 -81.19711 1082 ft 162 kts 330°
2026-05-05 00:57 28.61756 -81.20731 1038 ft 165 kts 305°
2026-05-05 00:58 28.62290 -81.21920 856 ft 173 kts 294°
2026-05-05 00:58 28.62721 -81.23161 925 ft 165 kts 296°
2026-05-05 00:58 28.63231 -81.24339 891 ft 167 kts 303°
2026-05-05 00:58 28.63895 -81.25430 821 ft 168 kts 309°
2026-05-05 00:59 28.64542 -81.26544 795 ft 166 kts 303°
2026-05-05 00:59 28.65092 -81.27675 821 ft 163 kts 294°
2026-05-05 00:59 28.65436 -81.28902 854 ft 164 kts 285°
2026-05-05 00:59 28.65668 -81.30159 995 ft 156 kts 286°
2026-05-05 01:00 28.65929 -81.31331 1036 ft 163 kts 285°
2026-05-05 01:00 28.66149 -81.32576 1324 ft 143 kts 283°
2026-05-05 01:00 28.66305 -81.33682 1517 ft 149 kts 279°
2026-05-05 01:00 28.66447 -81.34871 1584 ft 156 kts 277°
2026-05-05 01:01 28.66560 -81.36118 1610 ft 161 kts 275°
2026-05-05 01:01 28.66685 -81.37391 1674 ft 162 kts 276°
2026-05-05 01:01 28.66769 -81.38688 1683 ft 166 kts 274°
2026-05-05 01:01 28.66832 -81.39984 1807 ft 167 kts 276°
2026-05-05 01:02 28.66977 -81.41331 1806 ft 177 kts 277°
2026-05-05 01:02 28.67072 -81.42712 1874 ft 172 kts 272°
2026-05-05 01:02 28.67097 -81.44079 1847 ft 172 kts 269°
2026-05-05 01:02 28.67062 -81.45433 1826 ft 172 kts 268°
2026-05-05 01:03 28.67055 -81.46797 1820 ft 170 kts 273°
2026-05-05 01:03 28.67169 -81.48142 1729 ft 177 kts 277°
2026-05-05 01:03 28.67309 -81.49537 1730 ft 175 kts 276°
2026-05-05 01:03 28.67445 -81.50907 1739 ft 174 kts 277°
2026-05-05 01:04 28.67547 -81.52259 1807 ft 169 kts 274°
2026-05-05 01:04 28.67508 -81.55012 1680 ft 178 kts 273°
2026-05-05 01:04 28.67660 -81.56395 1778 ft 171 kts 282°
2026-05-05 01:05 28.67895 -81.57772 1611 ft 179 kts 282°
2026-05-05 01:05 28.68135 -81.59132 1661 ft 174 kts 284°
2026-05-05 01:05 28.68403 -81.60464 1602 ft 175 kts 284°
2026-05-05 01:05 28.68627 -81.61811 1660 ft 172 kts 279°
2026-05-05 01:06 28.68783 -81.63170 1671 ft 173 kts 279°
2026-05-05 01:06 28.68962 -81.64532 1677 ft 172 kts 278°
2026-05-05 01:06 28.69091 -81.65888 1655 ft 173 kts 274°
2026-05-05 01:06 28.69109 -81.67266 1587 ft 176 kts 269°
2026-05-05 01:07 28.69177 -81.68671 1437 ft 179 kts 283°
2026-05-05 01:07 28.69510 -81.70037 1332 ft 177 kts 290°
2026-05-05 01:07 28.69865 -81.71358 1328 ft 175 kts 289°
2026-05-05 01:07 28.70243 -81.72680 1285 ft 174 kts 294°
2026-05-05 01:08 28.70840 -81.73893 1176 ft 174 kts 309°
2026-05-05 01:08 28.71631 -81.74915 1067 ft 175 kts 319°
2026-05-05 01:08 28.72500 -81.75868 1009 ft 171 kts 322°
2026-05-05 01:08 28.73371 -81.76769 972 ft 168 kts 323°
2026-05-05 01:09 28.74250 -81.77659 803 ft 172 kts 322°
2026-05-05 01:09 28.75149 -81.78581 644 ft 174 kts 321°
2026-05-05 01:09 28.76038 -81.79496 553 ft 171 kts 321°
2026-05-05 01:09 28.76903 -81.80408 500 ft 165 kts 322°
2026-05-05 01:10 28.77850 -81.81104 466 ft 161 kts 339°
2026-05-05 01:10 28.78865 -81.81476 524 ft 139 kts 359°
2026-05-05 01:10 28.79646 -81.81375 420 ft 96 kts 32°
2026-05-05 01:10 28.80269 -81.81031 209 ft 100 kts 33°
2026-05-05 01:11 28.80833 -81.80686 152 ft 82 kts 40°
2026-05-05 01:11 28.81235 -81.80410 69 ft 51 kts 39°
2026-05-05 01:11 28.81407 -81.80250 69 ft 29 kts 44°
2026-05-05 01:11 28.81566 -81.80055 70 ft 34 kts 51°
2026-05-05 01:12 28.81716 -81.79890 66 ft 19 kts 53°
2026-05-05 01:12 28.81780 -81.79857 68 ft 14 kts 230°
2026-05-05 01:12 28.81731 -81.79774 69 ft 19 kts 61°
2026-05-05 01:12 28.81834 -81.79712 68 ft 13 kts 30°
2026-05-05 01:13 28.81899 -81.79756 66 ft 12 kts 285°
2026-05-05 01:13 28.81905 -81.79824 68 ft 13 kts 260°
2026-05-05 01:13 28.81890 -81.79903 66 ft 20 kts 265°
2026-05-05 01:13 28.81943 -81.80064 69 ft 14 kts 276°
2026-05-05 01:14 28.81907 -81.80123 64 ft 0 kts 195°
2026-05-05 01:14 28.81839 -81.80174 63 ft 17 kts 236°
2026-05-05 01:15 28.81853 -81.80211 69 ft 9 kts 313°
2026-05-05 01:15 28.82111 -81.80484 69 ft 76 kts 300°
2026-05-05 01:15 28.82442 -81.81057 197 ft 92 kts 309°
2026-05-05 01:15 28.82566 -81.81783 465 ft 99 kts 238°
2026-05-05 01:16 28.81980 -81.81997 556 ft 105 kts 138°
2026-05-05 01:16 28.81604 -81.81235 588 ft 118 kts 118°
2026-05-05 01:16 28.81181 -81.80402 673 ft 130 kts 119°
2026-05-05 01:16 28.80718 -81.79532 930 ft 120 kts 118°
2026-05-05 01:17 28.80350 -81.78691 986 ft 129 kts 112°
2026-05-05 01:17 28.79970 -81.77715 836 ft 143 kts 113°
2026-05-05 01:17 28.79524 -81.76667 761 ft 145 kts 116°
2026-05-05 01:17 28.79013 -81.75686 808 ft 142 kts 121°
2026-05-05 01:18 28.78476 -81.74750 834 ft 143 kts 122°
2026-05-05 01:18 28.77908 -81.73829 844 ft 143 kts 124°
2026-05-05 01:18 28.77298 -81.72932 865 ft 144 kts 128°
2026-05-05 01:18 28.76647 -81.72068 894 ft 142 kts 130°
2026-05-05 01:19 28.75977 -81.71258 974 ft 139 kts 132°
2026-05-05 01:19 28.75297 -81.70459 1009 ft 140 kts 130°
2026-05-05 01:19 28.74621 -81.69672 1095 ft 138 kts 130°
2026-05-05 01:19 28.73949 -81.68877 1114 ft 141 kts 128°
2026-05-05 01:20 28.73363 -81.67973 1088 ft 143 kts 122°
2026-05-05 01:20 28.72991 -81.67358 1123 ft 141 kts 122°
2026-05-05 01:20 28.72214 -81.66200 1215 ft 139 kts 127°
2026-05-05 01:20 28.71779 -81.65632 1178 ft 142 kts 129°
2026-05-05 01:21 28.71093 -81.64814 1198 ft 141 kts 131°
2026-05-05 01:21 28.70393 -81.64024 1156 ft 141 kts 131°
2026-05-05 01:21 28.69712 -81.63245 1177 ft 138 kts 129°
2026-05-05 01:21 28.69089 -81.62379 1100 ft 142 kts 124°
2026-05-05 01:22 28.68516 -81.61483 1113 ft 140 kts 123°
2026-05-05 01:22 28.67956 -81.60584 1113 ft 140 kts 122°
2026-05-05 01:22 28.67395 -81.59659 1092 ft 142 kts 122°
2026-05-05 01:22 28.66843 -81.58739 1103 ft 140 kts 122°
2026-05-05 01:23 28.66291 -81.57823 1086 ft 141 kts 122°
2026-05-05 01:23 28.65730 -81.56900 1071 ft 141 kts 122°
2026-05-05 01:23 28.65162 -81.55991 1066 ft 141 kts 123°
2026-05-05 01:23 28.64602 -81.55089 1026 ft 137 kts 123°
2026-05-05 01:24 28.64133 -81.54363 942 ft 92 kts 126°
2026-05-05 01:24 28.63780 -81.53785 858 ft 83 kts 120°
2026-05-05 01:24 28.63575 -81.53262 825 ft 65 kts 108°
2026-05-05 01:24 28.63384 -81.52739 667 ft 79 kts 116°
2026-05-05 01:25 28.62991 -81.52299 581 ft 77 kts 129°
2026-05-05 01:25 28.62687 -81.51797 619 ft 79 kts 116°
2026-05-05 01:25 28.62318 -81.51278 643 ft 93 kts 139°
2026-05-05 01:25 28.61802 -81.50904 535 ft 86 kts 116°
2026-05-05 01:26 28.61618 -81.50280 662 ft 79 kts 101°
2026-05-05 01:26 28.61450 -81.49659 687 ft 90 kts 116°
2026-05-05 01:26 28.61184 -81.49071 962 ft 79 kts 114°
2026-05-05 01:26 28.60935 -81.48463 1024 ft 92 kts 115°
2026-05-05 01:27 28.60626 -81.47796 1073 ft 98 kts 116°
2026-05-05 01:27 28.60299 -81.47105 1154 ft 97 kts 116°
2026-05-05 01:27 28.59927 -81.46398 1281 ft 112 kts 120°
2026-05-05 01:27 28.59470 -81.45636 1341 ft 123 kts 123°
2026-05-05 01:28 28.58958 -81.44840 1192 ft 131 kts 123°
2026-05-05 01:28 28.58444 -81.44055 1308 ft 126 kts 122°
2026-05-05 01:28 28.57904 -81.43248 1268 ft 127 kts 126°
2026-05-05 01:28 28.57326 -81.42511 1244 ft 122 kts 129°
2026-05-05 01:29 28.56748 -81.41814 1176 ft 122 kts 129°
2026-05-05 01:29 28.56159 -81.41105 1089 ft 123 kts 130°
2026-05-05 01:29 28.55562 -81.40423 977 ft 122 kts 131°
2026-05-05 01:29 28.54969 -81.39789 1044 ft 108 kts 133°
2026-05-05 01:30 28.54430 -81.39213 1057 ft 103 kts 129°
2026-05-05 01:30 28.53939 -81.38628 1067 ft 104 kts 129°
2026-05-05 01:30 28.53455 -81.37998 1018 ft 108 kts 124°
2026-05-05 01:30 28.53179 -81.37270 901 ft 96 kts 100°
2026-05-05 01:31 28.53255 -81.36522 708 ft 98 kts 63°
2026-05-05 01:31 28.53541 -81.35874 614 ft 88 kts 66°
2026-05-05 01:31 28.53794 -81.35237 528 ft 90 kts 68°
2026-05-05 01:31 28.54046 -81.34572 380 ft 91 kts 75°
2026-05-05 01:32 28.54289 -81.33908 133 ft 93 kts 68°
2026-05-05 01:32 28.54507 -81.33334 118 ft 67 kts 70°
2026-05-05 01:32 28.54704 -81.32831 235 ft 67 kts 69°
2026-05-05 01:32 28.54931 -81.32287 397 ft 87 kts 69°
2026-05-05 01:33 28.55178 -81.31660 785 ft 81 kts 68°
2026-05-05 01:33 28.55502 -81.31131 1073 ft 97 kts 32°
2026-05-05 01:33 28.56288 -81.31294 1058 ft 137 kts 337°
2026-05-05 01:33 28.56734 -81.32235 1027 ft 155 kts 260°
2026-05-05 01:34 28.56342 -81.33370 1066 ft 150 kts 248°
2026-05-05 01:34 28.56030 -81.34430 999 ft 136 kts 248°
2026-05-05 01:34 28.55732 -81.35434 886 ft 132 kts 251°
2026-05-05 01:34 28.55452 -81.36422 1180 ft 129 kts 249°
2026-05-05 01:35 28.55163 -81.37423 1408 ft 136 kts 250°
2026-05-05 01:35 28.55174 -81.38478 1599 ft 139 kts 290°
2026-05-05 01:35 28.55985 -81.39141 1451 ft 147 kts 357°
2026-05-05 01:35 28.56813 -81.38712 1462 ft 132 kts 65°
2026-05-05 01:36 28.56732 -81.37707 1306 ft 143 kts 124°
2026-05-05 01:36 28.55893 -81.37385 965 ft 143 kts 195°
2026-05-05 01:36 28.55420 -81.38308 1069 ft 142 kts 280°
2026-05-05 01:36 28.55205 -81.39347 1000 ft 145 kts 239°
2026-05-05 01:37 28.54738 -81.40364 1202 ft 142 kts 230°
2026-05-05 01:37 28.53860 -81.40769 1056 ft 147 kts 163°
2026-05-05 01:37 28.52903 -81.40317 940 ft 151 kts 153°
2026-05-05 01:37 28.52429 -81.39540 909 ft 138 kts 85°
2026-05-05 01:38 28.52564 -81.38446 913 ft 136 kts 80°
2026-05-05 01:38 28.52897 -81.37530 907 ft 119 kts 63°
2026-05-05 01:38 28.53248 -81.36694 858 ft 125 kts 71°
2026-05-05 01:38 28.53566 -81.35772 667 ft 122 kts 68°
2026-05-05 01:39 28.53914 -81.34915 417 ft 114 kts 70°
2026-05-05 01:39 28.54176 -81.34191 225 ft 86 kts 66°
2026-05-05 01:39 28.54395 -81.33625 108 ft 64 kts 70°
2026-05-05 01:39 28.54530 -81.33363 113 ft 19 kts 33°
2026-05-05 01:40 28.54615 -81.33296 113 ft 3 kts 35°
2026-05-05 01:40 28.54615 -81.33295 113 ft 0 kts 35°
2026-05-05 01:41 28.54652 -81.33268 112 ft 7 kts
2026-05-05 01:41 28.54656 -81.33342 112 ft 15 kts 246°
2026-05-05 01:42 28.54608 -81.33466 110 ft 18 kts 248°
2026-05-05 01:42 28.54559 -81.33597 110 ft 19 kts 247°
2026-05-05 01:42 28.54501 -81.33753 108 ft 22 kts 246°
2026-05-05 01:42 28.54449 -81.33865 109 ft 23 kts 245°
2026-05-05 01:43 28.54439 -81.34079 109 ft 27 kts 275°
2026-05-05 01:43 28.54466 -81.34202 112 ft 5 kts 22°
2026-05-05 01:43 28.54584 -81.34203 111 ft 25 kts
2026-05-05 01:43 28.54736 -81.34226 111 ft 20 kts 336°